STARLINK-30418, 57829

Orbit data source: Space-Track

STARLINK-30418, 57829 is a payload satellite owned by SpaceX/Seattle (US) in LEO that was launched on Sat, 09 Sep 2023 UTC via an FALCON 9 launch vehicle from the Air Force Eastern Test Range (AFETR). Payload-class satellites include a variety of spacecraft equipped with specific instruments for various scientific and technological missions. These include communications satellites like Starlink; space stations such as the ISS; scientific satellites like the Hubble; Earth observation satellites from companies like Planet Labs, Umbra, and HawkEye 360; GPS; miniature CubeSats for education and research; and military/defense satellites.

Loading next visibility...
Identifier
57829, 2023-138X
Orbit
LEO
Country
Flag of USUS
Related business
Manufacturer
SpaceX/Seattle
Mission
Operational Commercial Communications
Bus & Motor
STARLINK V2M, Unknown motor
Mass
730 kg wet, ~700 kg dry
Launch date (UTC)
2023-09-09 (3 years ago)
Launch vehicle
FALCON 9
Launch site
Air Force Eastern Test Range (AFETR)
Object type
Payload
Rocket body
Debris
Shape & HBR
Box + 2 Pan, 17.7 m
Radar Cross Section
33.884 m², Large (>1 m²)

Expand to show TLE details & history
Last TLE update: 2 days ago

TLE from 2 days ago
0 STARLINK-30418
1 57829U 23138X   26170.97419983  .00000400  00000-0  24072-4 0  9997
2 57829  43.0027  16.3406 0001634 268.3095  91.7569 15.27582184154219
Epoch: 2026-06-19T23:22Z
TLE epoch observation values (Epoch: 2026-06-19T23:22:50.865Z)
Latitude
-0.00005°
Longitude
117.43313°
Altitude
482.853 km
Speed
7.626 km/s
True Right ascension
01h 05m 21s
True Declination
0° 00' 00"
Sunlit
Object was in daylight at epoch
Visualization orbit readout
Latitude
Unknown
Longitude
Unknown
Altitude
Unknown
Speed
Unknown
Apparent Right ascension
Unknown
Apparent Declination
Unknown
Sunlit
N/A
Visualization observer readout
Local Sidereal Time
21:32:27
Azimuth
Unknown
Elevation
Unknown
Doppler factor
Unknown
Orbital elements
Apogee altitude
486.109 km
Perigee altitude
483.866 km
Semi-major axis
6,863.124 km
Eccentricity
0.00016
Inclination
43.0027°
RAAN
16.3406°
Arg. of periapsis
268.3095°
True anomaly
91.77562°
Mean anomaly
91.7569°
Eccentric anomaly
91.76626°
Mean motion
3.81734 °/min
Orbital period
94.31 mins
BSTAR
0.000024072
Loading maneuver chart data...
Computing Atmospheric mass density...
Loading historical data...
Loading historical data...
Loading historical data...
Loading historical data...
Loading historical data...
Loading historical data...
Loading historical data...

Documentation

Showing up to 5 results
|